Location: Penzberg
(47.7615°N, 11.3159°E)
Time: 17:57:00
(UTC+02:00)

ISS - Pass Details

Date: 04 January 2018
Orbit: 401 x 409 km, 51.6° (Epoch: 19 August)

Event Time Altitude Azimuth Distance (km) Brightness Sun altitude
Exits shadow 06:57:46 16° 295° (WNW) 1,188 -2.1 -10.6°
Maximum altitude 07:00:08 41° 1° (N) 631 -3.0 -10.2°
Drops below altitude 10° 07:03:24 10° 74° (ENE) 1,519 -0.1 -9.7°
Sets 07:05:36 0° 82° (E) 2,386 1.2 -9.3°
